Year,Month,Day,Hour,Minute,Value (Times are PST for temperature in C)
2017,05,27,00,00,12.10
2017,05,27,00,01,12.00
2017,05,27,00,02,12.00
2017,05,27,00,03,12.00
2017,05,27,00,04,12.00
2017,05,27,00,05,12.00
2017,05,27,00,06,12.00
2017,05,27,00,07,11.90
2017,05,27,00,08,11.90
2017,05,27,00,09,11.90
2017,05,27,00,10,11.90
2017,05,27,00,11,11.90
2017,05,27,00,12,11.90
2017,05,27,00,13,11.90
2017,05,27,00,14,11.80
2017,05,27,00,15,11.80
2017,05,27,00,16,11.80
2017,05,27,00,17,11.80
2017,05,27,00,18,11.80
2017,05,27,00,19,11.70
2017,05,27,00,20,11.70
2017,05,27,00,21,11.70
2017,05,27,00,22,11.70
2017,05,27,00,23,11.70
2017,05,27,00,24,11.60
2017,05,27,00,25,11.60
2017,05,27,00,26,11.60
2017,05,27,00,27,11.60
2017,05,27,00,28,11.60
2017,05,27,00,29,11.60
2017,05,27,00,30,11.60
2017,05,27,00,31,11.60
2017,05,27,00,32,11.60
2017,05,27,00,33,11.60
2017,05,27,00,34,11.50
2017,05,27,00,35,11.50
2017,05,27,00,36,11.50
2017,05,27,00,37,11.50
2017,05,27,00,38,11.50
2017,05,27,00,39,11.50
2017,05,27,00,40,11.50
2017,05,27,00,41,11.50
2017,05,27,00,42,11.40
2017,05,27,00,43,11.40
2017,05,27,00,44,11.40
2017,05,27,00,45,11.40
2017,05,27,00,46,11.40
2017,05,27,00,47,11.40
2017,05,27,00,48,11.40
2017,05,27,00,49,11.40
2017,05,27,00,50,11.40
2017,05,27,00,51,11.40
2017,05,27,00,52,11.40
2017,05,27,00,53,11.40
2017,05,27,00,54,11.40
2017,05,27,00,55,11.40
2017,05,27,00,56,11.30
2017,05,27,00,57,11.30
2017,05,27,00,58,11.30
2017,05,27,00,59,11.30
2017,05,27,01,00,11.30
2017,05,27,01,01,11.30
2017,05,27,01,02,11.30
2017,05,27,01,03,11.30
2017,05,27,01,04,11.30
2017,05,27,01,05,11.20
2017,05,27,01,06,11.20
2017,05,27,01,07,11.20
2017,05,27,01,08,11.20
2017,05,27,01,09,11.20
2017,05,27,01,10,11.20
2017,05,27,01,11,11.10
2017,05,27,01,12,11.10
2017,05,27,01,13,11.10
2017,05,27,01,14,11.10
2017,05,27,01,15,11.10
2017,05,27,01,16,11.10
2017,05,27,01,17,11.10
2017,05,27,01,18,11.00
2017,05,27,01,19,11.00
2017,05,27,01,20,11.00
2017,05,27,01,21,11.00
2017,05,27,01,22,10.90
2017,05,27,01,23,10.90
2017,05,27,01,24,10.90
2017,05,27,01,25,10.90
2017,05,27,01,26,10.90
2017,05,27,01,27,10.90
2017,05,27,01,28,10.80
2017,05,27,01,29,10.80
2017,05,27,01,30,10.80
2017,05,27,01,31,10.80
2017,05,27,01,32,10.80
2017,05,27,01,33,10.80
2017,05,27,01,34,10.80
2017,05,27,01,35,10.80
2017,05,27,01,36,10.80
2017,05,27,01,37,10.80
2017,05,27,01,38,10.80
2017,05,27,01,39,10.80
2017,05,27,01,40,10.80
2017,05,27,01,41,10.80
2017,05,27,01,42,10.70
2017,05,27,01,43,10.70
2017,05,27,01,44,10.70
2017,05,27,01,45,10.70
2017,05,27,01,46,10.70
2017,05,27,01,47,10.70
2017,05,27,01,48,10.70
2017,05,27,01,49,10.60
2017,05,27,01,50,10.60
2017,05,27,01,51,10.60
2017,05,27,01,52,10.60
2017,05,27,01,53,10.50
2017,05,27,01,54,10.50
2017,05,27,01,55,10.50
2017,05,27,01,56,10.40
2017,05,27,01,57,10.40
2017,05,27,01,58,10.40
2017,05,27,01,59,10.40
2017,05,27,02,00,10.40
2017,05,27,02,01,10.40
2017,05,27,02,02,10.40
2017,05,27,02,03,10.40
2017,05,27,02,04,10.40
2017,05,27,02,05,10.30
2017,05,27,02,06,10.30
2017,05,27,02,07,10.30
2017,05,27,02,08,10.30
2017,05,27,02,09,10.30
2017,05,27,02,10,10.30
2017,05,27,02,11,10.30
2017,05,27,02,12,10.30
2017,05,27,02,13,10.30
2017,05,27,02,14,10.30
2017,05,27,02,15,10.30
2017,05,27,02,16,10.30
2017,05,27,02,17,10.30
2017,05,27,02,18,10.30
2017,05,27,02,19,10.40
2017,05,27,02,20,10.40
2017,05,27,02,21,10.40
2017,05,27,02,22,10.30
2017,05,27,02,23,10.30
2017,05,27,02,24,10.30
2017,05,27,02,25,10.30
2017,05,27,02,26,10.30
2017,05,27,02,27,10.30
2017,05,27,02,28,10.30
2017,05,27,02,29,10.20
2017,05,27,02,30,10.20
2017,05,27,02,31,10.20
2017,05,27,02,32,10.20
2017,05,27,02,33,10.20
2017,05,27,02,34,10.20
2017,05,27,02,35,10.20
2017,05,27,02,36,10.20
2017,05,27,02,37,10.10
2017,05,27,02,38,10.10
2017,05,27,02,39,10.10
2017,05,27,02,40,10.10
2017,05,27,02,41,10.10
2017,05,27,02,42,10.10
2017,05,27,02,43,10.10
2017,05,27,02,44,10.10
2017,05,27,02,45,10.10
2017,05,27,02,46,10.00
2017,05,27,02,47,10.00
2017,05,27,02,48,10.00
2017,05,27,02,49,10.00
2017,05,27,02,50,10.00
2017,05,27,02,51,9.90
2017,05,27,02,52,9.90
2017,05,27,02,53,9.90
2017,05,27,02,54,9.90
2017,05,27,02,55,9.90
2017,05,27,02,56,9.80
2017,05,27,02,57,9.80
2017,05,27,02,58,9.80
2017,05,27,02,59,9.80
2017,05,27,03,00,9.80
2017,05,27,03,01,9.80
2017,05,27,03,02,9.80
2017,05,27,03,03,9.80
2017,05,27,03,04,9.80
2017,05,27,03,05,9.80
2017,05,27,03,06,9.80
2017,05,27,03,07,9.80
2017,05,27,03,08,9.70
2017,05,27,03,09,9.70
2017,05,27,03,10,9.70
2017,05,27,03,11,9.70
2017,05,27,03,12,9.70
2017,05,27,03,13,9.70
2017,05,27,03,14,9.70
2017,05,27,03,15,9.70
2017,05,27,03,16,9.60
2017,05,27,03,17,9.60
2017,05,27,03,18,9.60
2017,05,27,03,19,9.60
2017,05,27,03,20,9.50
2017,05,27,03,21,9.50
2017,05,27,03,22,9.50
2017,05,27,03,23,9.50
2017,05,27,03,24,9.50
2017,05,27,03,25,9.50
2017,05,27,03,26,9.50
2017,05,27,03,27,9.50
2017,05,27,03,28,9.50
2017,05,27,03,29,9.50
2017,05,27,03,30,9.50
2017,05,27,03,31,9.50
2017,05,27,03,32,9.50
2017,05,27,03,33,9.50
2017,05,27,03,34,9.40
2017,05,27,03,35,9.40
2017,05,27,03,36,9.40
2017,05,27,03,37,9.40
2017,05,27,03,38,9.40
2017,05,27,03,39,9.40
2017,05,27,03,40,9.40
2017,05,27,03,41,9.30
2017,05,27,03,42,9.30
2017,05,27,03,43,9.30
2017,05,27,03,44,9.30
2017,05,27,03,45,9.30
2017,05,27,03,46,9.30
2017,05,27,03,47,9.30
2017,05,27,03,48,9.30
2017,05,27,03,49,9.30
2017,05,27,03,50,9.30
2017,05,27,03,51,9.30
2017,05,27,03,52,9.30
2017,05,27,03,53,9.30
2017,05,27,03,54,9.30
2017,05,27,03,55,9.30
2017,05,27,03,56,9.30
2017,05,27,03,57,9.30
2017,05,27,03,58,9.30
2017,05,27,03,59,9.30
2017,05,27,04,00,9.30
2017,05,27,04,01,9.20
2017,05,27,04,02,9.20
2017,05,27,04,03,9.20
2017,05,27,04,04,9.20
2017,05,27,04,05,9.20
2017,05,27,04,06,9.20
2017,05,27,04,07,9.20
2017,05,27,04,08,9.20
2017,05,27,04,09,9.20
2017,05,27,04,10,9.20
2017,05,27,04,11,9.10
2017,05,27,04,12,9.10
2017,05,27,04,13,9.10
2017,05,27,04,14,9.10
2017,05,27,04,15,9.10
2017,05,27,04,16,9.10
2017,05,27,04,17,9.10
2017,05,27,04,18,9.10
2017,05,27,04,19,9.10
2017,05,27,04,20,9.10
2017,05,27,04,21,9.10
2017,05,27,04,22,9.10
2017,05,27,04,23,9.10
2017,05,27,04,24,9.10
2017,05,27,04,25,9.20
2017,05,27,04,26,9.20
2017,05,27,04,27,9.20
2017,05,27,04,28,9.20
2017,05,27,04,29,9.20
2017,05,27,04,30,9.10
2017,05,27,04,31,9.10
2017,05,27,04,32,9.10
2017,05,27,04,33,9.10
2017,05,27,04,34,9.10
2017,05,27,04,35,9.10
2017,05,27,04,36,9.00
2017,05,27,04,37,9.00
2017,05,27,04,38,9.00
2017,05,27,04,39,9.00
2017,05,27,04,40,8.90
2017,05,27,04,41,8.90
2017,05,27,04,42,8.90
2017,05,27,04,43,8.90
2017,05,27,04,44,8.80
2017,05,27,04,45,8.80
2017,05,27,04,46,8.80
2017,05,27,04,47,8.80
2017,05,27,04,48,8.90
2017,05,27,04,49,8.90
2017,05,27,04,50,8.90
2017,05,27,04,51,8.90
2017,05,27,04,52,8.90
2017,05,27,04,53,8.90
2017,05,27,04,54,8.80
2017,05,27,04,55,8.80
2017,05,27,04,56,8.70
2017,05,27,04,57,8.70
2017,05,27,04,58,8.70
2017,05,27,04,59,8.70
2017,05,27,05,00,8.70
2017,05,27,05,01,8.70
2017,05,27,05,02,8.70
2017,05,27,05,03,8.70
2017,05,27,05,04,8.60
2017,05,27,05,05,8.60
2017,05,27,05,06,8.60
2017,05,27,05,07,8.60
2017,05,27,05,08,8.70
2017,05,27,05,09,8.70
2017,05,27,05,10,8.70
2017,05,27,05,11,8.80
2017,05,27,05,12,8.80
2017,05,27,05,13,8.80
2017,05,27,05,14,8.80
2017,05,27,05,15,8.80
2017,05,27,05,16,8.80
2017,05,27,05,17,8.80
2017,05,27,05,18,8.70
2017,05,27,05,19,8.70
2017,05,27,05,20,8.70
2017,05,27,05,21,8.70
2017,05,27,05,22,8.60
2017,05,27,05,23,8.70
2017,05,27,05,24,8.70
2017,05,27,05,25,8.70
2017,05,27,05,26,8.70
2017,05,27,05,27,8.70
2017,05,27,05,28,8.70
2017,05,27,05,29,8.70
2017,05,27,05,30,8.70
2017,05,27,05,31,8.70
2017,05,27,05,32,8.70
2017,05,27,05,33,8.70
2017,05,27,05,34,8.70
2017,05,27,05,35,8.70
2017,05,27,05,36,8.70
2017,05,27,05,37,8.70
2017,05,27,05,38,8.70
2017,05,27,05,39,8.70
2017,05,27,05,40,8.70
2017,05,27,05,41,8.70
2017,05,27,05,42,8.70
2017,05,27,05,43,8.70
2017,05,27,05,44,8.70
2017,05,27,05,45,8.70
2017,05,27,05,46,8.70
2017,05,27,05,47,8.70
2017,05,27,05,48,8.70
2017,05,27,05,49,8.70
2017,05,27,05,50,8.60
2017,05,27,05,51,8.60
2017,05,27,05,52,8.60
2017,05,27,05,53,8.60
2017,05,27,05,54,8.60
2017,05,27,05,55,8.60
2017,05,27,05,56,8.50
2017,05,27,05,57,8.50
2017,05,27,05,58,8.50
2017,05,27,05,59,8.50
2017,05,27,06,00,8.50
2017,05,27,06,01,8.50
2017,05,27,06,02,8.50
2017,05,27,06,03,8.40
2017,05,27,06,04,8.40
2017,05,27,06,05,8.40
2017,05,27,06,06,8.40
2017,05,27,06,07,8.40
2017,05,27,06,08,8.40
2017,05,27,06,09,8.40
2017,05,27,06,10,8.40
2017,05,27,06,11,8.40
2017,05,27,06,12,8.40
2017,05,27,06,13,8.40
2017,05,27,06,14,8.40
2017,05,27,06,15,8.40
2017,05,27,06,16,8.40
2017,05,27,06,17,8.40
2017,05,27,06,18,8.40
2017,05,27,06,19,8.40
2017,05,27,06,20,8.40
2017,05,27,06,21,8.40
2017,05,27,06,22,8.40
2017,05,27,06,23,8.40
2017,05,27,06,24,8.40
2017,05,27,06,25,8.40
2017,05,27,06,26,8.40
2017,05,27,06,27,8.50
2017,05,27,06,28,8.50
2017,05,27,06,29,8.50
2017,05,27,06,30,8.50
2017,05,27,06,31,8.60
2017,05,27,06,32,8.60
2017,05,27,06,33,8.60
2017,05,27,06,34,8.60
2017,05,27,06,35,8.60
2017,05,27,06,36,8.60
2017,05,27,06,37,8.70
2017,05,27,06,38,8.70
2017,05,27,06,39,8.70
2017,05,27,06,40,8.70
2017,05,27,06,41,8.70
2017,05,27,06,42,8.70
2017,05,27,06,43,8.70
2017,05,27,06,44,8.70
2017,05,27,06,45,8.70
2017,05,27,06,46,8.70
2017,05,27,06,47,8.70
2017,05,27,06,48,8.70
2017,05,27,06,49,8.70
2017,05,27,06,50,8.70
2017,05,27,06,51,8.70
2017,05,27,06,52,8.70
2017,05,27,06,53,8.70
2017,05,27,06,54,8.70
2017,05,27,06,55,8.70
2017,05,27,06,56,8.80
2017,05,27,06,57,8.80
2017,05,27,06,58,8.80
2017,05,27,06,59,8.80
2017,05,27,07,00,8.80
2017,05,27,07,01,8.90
2017,05,27,07,02,8.90
2017,05,27,07,03,9.00
2017,05,27,07,04,9.10
2017,05,27,07,05,9.20
2017,05,27,07,06,9.20
2017,05,27,07,07,9.30
2017,05,27,07,08,9.40
2017,05,27,07,09,9.50
2017,05,27,07,10,9.50
2017,05,27,07,11,9.60
2017,05,27,07,12,9.70
2017,05,27,07,13,9.80
2017,05,27,07,14,9.90
2017,05,27,07,15,9.90
2017,05,27,07,16,10.00
2017,05,27,07,17,10.10
2017,05,27,07,18,10.20
2017,05,27,07,19,10.30
2017,05,27,07,20,10.30
2017,05,27,07,21,10.40
2017,05,27,07,22,10.50
2017,05,27,07,23,10.60
2017,05,27,07,24,10.70
2017,05,27,07,25,10.80
2017,05,27,07,26,10.80
2017,05,27,07,27,10.90
2017,05,27,07,28,11.00
2017,05,27,07,29,11.00
2017,05,27,07,30,11.10
2017,05,27,07,31,11.20
2017,05,27,07,32,11.20
2017,05,27,07,33,11.30
2017,05,27,07,34,11.40
2017,05,27,07,35,11.40
2017,05,27,07,36,11.50
2017,05,27,07,37,11.60
2017,05,27,07,38,11.60
2017,05,27,07,39,11.70
2017,05,27,07,40,11.80
2017,05,27,07,41,11.90
2017,05,27,07,42,12.00
2017,05,27,07,43,12.20
2017,05,27,07,44,12.30
2017,05,27,07,45,12.40
2017,05,27,07,46,12.50
2017,05,27,07,47,12.60
2017,05,27,07,48,12.70
2017,05,27,07,49,12.80
2017,05,27,07,50,12.90
2017,05,27,07,51,13.00
2017,05,27,07,52,13.10
2017,05,27,07,53,13.20
2017,05,27,07,54,13.30
2017,05,27,07,55,13.30
2017,05,27,07,56,13.40
2017,05,27,07,57,13.50
2017,05,27,07,58,13.50
2017,05,27,07,59,13.60
2017,05,27,08,00,13.60
2017,05,27,08,01,13.60
2017,05,27,08,02,13.70
2017,05,27,08,03,13.70
2017,05,27,08,04,13.80
2017,05,27,08,05,13.80
2017,05,27,08,06,13.90
2017,05,27,08,07,14.10
2017,05,27,08,08,14.20
2017,05,27,08,09,14.30
2017,05,27,08,10,14.40
2017,05,27,08,11,14.50
2017,05,27,08,12,14.60
2017,05,27,08,13,14.60
2017,05,27,08,14,14.70
2017,05,27,08,15,14.80
2017,05,27,08,16,14.80
2017,05,27,08,17,14.90
2017,05,27,08,18,15.00
2017,05,27,08,19,15.10
2017,05,27,08,20,15.20
2017,05,27,08,21,15.30
2017,05,27,08,22,15.40
2017,05,27,08,23,15.50
2017,05,27,08,24,15.60
2017,05,27,08,25,15.60
2017,05,27,08,26,15.70
2017,05,27,08,27,15.70
2017,05,27,08,28,15.70
2017,05,27,08,29,15.80
2017,05,27,08,30,15.80
2017,05,27,08,31,15.90
2017,05,27,08,32,16.00
2017,05,27,08,33,16.00
2017,05,27,08,34,16.00
2017,05,27,08,35,15.90
2017,05,27,08,36,15.90
2017,05,27,08,37,15.90
2017,05,27,08,38,15.90
2017,05,27,08,39,15.90
2017,05,27,08,40,15.90
2017,05,27,08,41,15.80
2017,05,27,08,42,15.80
2017,05,27,08,43,15.80
2017,05,27,08,44,15.80
2017,05,27,08,45,15.80
2017,05,27,08,46,15.80
2017,05,27,08,47,15.90
2017,05,27,08,48,16.00
2017,05,27,08,49,16.10
2017,05,27,08,50,16.20
2017,05,27,08,51,16.30
2017,05,27,08,52,16.40
2017,05,27,08,53,16.60
2017,05,27,08,54,16.70
2017,05,27,08,55,16.90
2017,05,27,08,56,17.00
2017,05,27,08,57,17.20
2017,05,27,08,58,17.30
2017,05,27,08,59,17.40
2017,05,27,09,00,17.40
2017,05,27,09,01,17.30
2017,05,27,09,02,17.30
2017,05,27,09,03,17.30
2017,05,27,09,04,17.30
2017,05,27,09,05,17.30
2017,05,27,09,06,17.40
2017,05,27,09,07,17.40
2017,05,27,09,08,17.40
2017,05,27,09,09,17.40
2017,05,27,09,10,17.40
2017,05,27,09,11,17.40
2017,05,27,09,12,17.40
2017,05,27,09,13,17.40
2017,05,27,09,14,17.40
2017,05,27,09,15,17.40
2017,05,27,09,16,17.40
2017,05,27,09,17,17.40
2017,05,27,09,18,17.50
2017,05,27,09,19,17.50
2017,05,27,09,20,17.60
2017,05,27,09,21,17.70
2017,05,27,09,22,17.70
2017,05,27,09,23,17.70
2017,05,27,09,24,17.70
2017,05,27,09,25,17.80
2017,05,27,09,26,17.80
2017,05,27,09,27,17.90
2017,05,27,09,28,17.90
2017,05,27,09,29,18.00
2017,05,27,09,30,18.00
2017,05,27,09,31,18.10
2017,05,27,09,32,18.10
2017,05,27,09,33,18.20
2017,05,27,09,34,18.30
2017,05,27,09,35,18.40
2017,05,27,09,36,18.60
2017,05,27,09,37,18.70
2017,05,27,09,38,18.90
2017,05,27,09,39,19.20
2017,05,27,09,40,19.30
2017,05,27,09,41,19.40
2017,05,27,09,42,19.50
2017,05,27,09,43,19.50
2017,05,27,09,44,19.60
2017,05,27,09,45,19.70
2017,05,27,09,46,19.80
2017,05,27,09,47,19.80
2017,05,27,09,48,19.80
2017,05,27,09,49,19.70
2017,05,27,09,50,19.70
2017,05,27,09,51,19.60
2017,05,27,09,52,19.50
2017,05,27,09,53,19.50
2017,05,27,09,54,19.40
2017,05,27,09,55,19.40
2017,05,27,09,56,19.40
2017,05,27,09,57,19.30
2017,05,27,09,58,19.30
2017,05,27,09,59,19.30
2017,05,27,10,00,19.30
2017,05,27,10,01,19.30
2017,05,27,10,02,19.30
2017,05,27,10,03,19.30
2017,05,27,10,04,19.40
2017,05,27,10,05,19.50
2017,05,27,10,06,19.50
2017,05,27,10,07,19.60
2017,05,27,10,08,19.60
2017,05,27,10,09,19.70
2017,05,27,10,10,19.70
2017,05,27,10,11,19.80
2017,05,27,10,12,19.90
2017,05,27,10,13,19.90
2017,05,27,10,14,19.90
2017,05,27,10,15,20.00
2017,05,27,10,16,20.00
2017,05,27,10,17,19.90
2017,05,27,10,18,19.80
2017,05,27,10,19,19.60
2017,05,27,10,20,19.60
2017,05,27,10,21,19.60
2017,05,27,10,22,19.70
2017,05,27,10,23,19.70
2017,05,27,10,24,19.70
2017,05,27,10,25,19.70
2017,05,27,10,26,19.60
2017,05,27,10,27,19.60
2017,05,27,10,28,19.60
2017,05,27,10,29,19.70
2017,05,27,10,30,19.70
2017,05,27,10,31,19.80
2017,05,27,10,32,19.80
2017,05,27,10,33,19.90
2017,05,27,10,34,20.00
2017,05,27,10,35,20.10
2017,05,27,10,36,20.10
2017,05,27,10,37,20.20
2017,05,27,10,38,20.30
2017,05,27,10,39,20.30
2017,05,27,10,40,20.30
2017,05,27,10,41,20.40
2017,05,27,10,42,20.40
2017,05,27,10,43,20.40
2017,05,27,10,44,20.50
2017,05,27,10,45,20.60
2017,05,27,10,46,20.70
2017,05,27,10,47,20.70
2017,05,27,10,48,20.80
2017,05,27,10,49,20.70
2017,05,27,10,50,20.70
2017,05,27,10,51,20.70
2017,05,27,10,52,20.70
2017,05,27,10,53,20.70
2017,05,27,10,54,20.70
2017,05,27,10,55,20.70
2017,05,27,10,56,20.70
2017,05,27,10,57,20.70
2017,05,27,10,58,20.70
2017,05,27,10,59,20.80
2017,05,27,11,00,20.80
2017,05,27,11,01,20.80
2017,05,27,11,02,20.80
2017,05,27,11,03,20.80
2017,05,27,11,04,20.90
2017,05,27,11,05,20.90
2017,05,27,11,06,20.90
2017,05,27,11,07,20.90
2017,05,27,11,08,20.90
2017,05,27,11,09,20.90
2017,05,27,11,10,20.90
2017,05,27,11,11,20.90
2017,05,27,11,12,20.90
2017,05,27,11,13,20.90
2017,05,27,11,14,20.90
2017,05,27,11,15,21.00
2017,05,27,11,16,21.00
2017,05,27,11,17,21.00
2017,05,27,11,18,21.00
2017,05,27,11,19,21.10
2017,05,27,11,20,21.10
2017,05,27,11,21,21.20
2017,05,27,11,22,21.20
2017,05,27,11,23,21.20
2017,05,27,11,24,21.20
2017,05,27,11,25,21.20
2017,05,27,11,26,21.20
2017,05,27,11,27,21.30
2017,05,27,11,28,21.20
2017,05,27,11,29,21.20
2017,05,27,11,30,21.10
2017,05,27,11,31,21.20
2017,05,27,11,32,21.20
2017,05,27,11,33,21.20
2017,05,27,11,34,21.30
2017,05,27,11,35,21.40
2017,05,27,11,36,21.40
2017,05,27,11,37,21.40
2017,05,27,11,38,21.30
2017,05,27,11,39,21.30
2017,05,27,11,40,21.30
2017,05,27,11,41,21.30
2017,05,27,11,42,21.40
2017,05,27,11,43,21.50
2017,05,27,11,44,21.50
2017,05,27,11,45,21.60
2017,05,27,11,46,21.60
2017,05,27,11,47,21.70
2017,05,27,11,48,21.80
2017,05,27,11,49,22.00
2017,05,27,11,50,22.00
2017,05,27,11,51,22.10
2017,05,27,11,52,22.10
2017,05,27,11,53,22.10
2017,05,27,11,54,22.10
2017,05,27,11,55,22.00
2017,05,27,11,56,22.00
2017,05,27,11,57,22.00
2017,05,27,11,58,22.10
2017,05,27,11,59,22.10
2017,05,27,12,00,22.10
2017,05,27,12,01,22.10
2017,05,27,12,02,22.20
2017,05,27,12,03,22.20
2017,05,27,12,04,22.10
2017,05,27,12,05,22.10
2017,05,27,12,06,22.10
2017,05,27,12,07,22.10
2017,05,27,12,08,22.20
2017,05,27,12,09,22.20
2017,05,27,12,10,22.20
2017,05,27,12,11,22.20
2017,05,27,12,12,22.30
2017,05,27,12,13,22.30
2017,05,27,12,14,22.40
2017,05,27,12,15,22.50
2017,05,27,12,16,22.50
2017,05,27,12,17,22.50
2017,05,27,12,18,22.50
2017,05,27,12,19,22.50
2017,05,27,12,20,22.50
2017,05,27,12,21,22.50
2017,05,27,12,22,22.60
2017,05,27,12,23,22.70
2017,05,27,12,24,22.70
2017,05,27,12,25,22.80
2017,05,27,12,26,22.80
2017,05,27,12,27,22.80
2017,05,27,12,28,22.80
2017,05,27,12,29,22.80
2017,05,27,12,30,22.80
2017,05,27,12,31,22.80
2017,05,27,12,32,22.80
2017,05,27,12,33,22.70
2017,05,27,12,34,22.70
2017,05,27,12,35,22.60
2017,05,27,12,36,22.50
2017,05,27,12,37,22.40
2017,05,27,12,38,22.40
2017,05,27,12,39,22.50
2017,05,27,12,40,22.50
2017,05,27,12,41,22.60
2017,05,27,12,42,22.70
2017,05,27,12,43,22.80
2017,05,27,12,44,22.80
2017,05,27,12,45,22.80
2017,05,27,12,46,22.80
2017,05,27,12,47,22.80
2017,05,27,12,48,22.80
2017,05,27,12,49,22.80
2017,05,27,12,50,22.60
2017,05,27,12,51,22.50
2017,05,27,12,52,22.40
2017,05,27,12,53,22.50
2017,05,27,12,54,22.50
2017,05,27,12,55,22.60
2017,05,27,12,56,22.60
2017,05,27,12,57,22.70
2017,05,27,12,58,22.70
2017,05,27,12,59,22.80
2017,05,27,13,00,22.80
2017,05,27,13,01,22.80
2017,05,27,13,02,22.80
2017,05,27,13,03,22.80
2017,05,27,13,04,22.80
2017,05,27,13,05,22.80
2017,05,27,13,06,22.80
2017,05,27,13,07,22.80
2017,05,27,13,08,22.80
2017,05,27,13,09,22.80
2017,05,27,13,10,22.70
2017,05,27,13,11,22.70
2017,05,27,13,12,22.70
2017,05,27,13,13,22.80
2017,05,27,13,14,22.90
2017,05,27,13,15,22.90
2017,05,27,13,16,23.00
2017,05,27,13,17,23.00
2017,05,27,13,18,23.00
2017,05,27,13,19,23.00
2017,05,27,13,20,22.90
2017,05,27,13,21,22.90
2017,05,27,13,22,22.90
2017,05,27,13,23,22.80
2017,05,27,13,24,22.80
2017,05,27,13,25,22.80
2017,05,27,13,26,22.80
2017,05,27,13,27,22.80
2017,05,27,13,28,22.70
2017,05,27,13,29,22.60
2017,05,27,13,30,22.40
2017,05,27,13,31,22.30
2017,05,27,13,32,22.20
2017,05,27,13,33,22.20
2017,05,27,13,34,22.20
2017,05,27,13,35,22.20
2017,05,27,13,36,22.30
2017,05,27,13,37,22.30
2017,05,27,13,38,22.40
2017,05,27,13,39,22.40
2017,05,27,13,40,22.50
2017,05,27,13,41,22.50
2017,05,27,13,42,22.50
2017,05,27,13,43,22.30
2017,05,27,13,44,22.20
2017,05,27,13,45,22.10
2017,05,27,13,46,22.00
2017,05,27,13,47,22.00
2017,05,27,13,48,21.90
2017,05,27,13,49,21.90
2017,05,27,13,50,21.90
2017,05,27,13,51,21.90
2017,05,27,13,52,21.90
2017,05,27,13,53,21.90
2017,05,27,13,54,22.00
2017,05,27,13,55,22.10
2017,05,27,13,56,22.20
2017,05,27,13,57,22.30
2017,05,27,13,58,22.30
2017,05,27,13,59,22.40
2017,05,27,14,00,22.40
2017,05,27,14,01,22.30
2017,05,27,14,02,22.30
2017,05,27,14,03,22.10
2017,05,27,14,04,22.00
2017,05,27,14,05,21.90
2017,05,27,14,06,21.80
2017,05,27,14,07,21.70
2017,05,27,14,08,21.70
2017,05,27,14,09,21.70
2017,05,27,14,10,21.70
2017,05,27,14,11,21.80
2017,05,27,14,12,21.80
2017,05,27,14,13,21.80
2017,05,27,14,14,21.80
2017,05,27,14,15,21.80
2017,05,27,14,16,21.80
2017,05,27,14,17,22.00
2017,05,27,14,18,22.10
2017,05,27,14,19,22.10
2017,05,27,14,20,22.10
2017,05,27,14,21,22.10
2017,05,27,14,22,22.10
2017,05,27,14,23,22.20
2017,05,27,14,24,22.20
2017,05,27,14,25,22.20
2017,05,27,14,26,22.20
2017,05,27,14,27,22.30
2017,05,27,14,28,22.30
2017,05,27,14,29,22.30
2017,05,27,14,30,22.30
2017,05,27,14,31,22.30
2017,05,27,14,32,22.30
2017,05,27,14,33,22.40
2017,05,27,14,34,22.40
2017,05,27,14,35,22.50
2017,05,27,14,36,22.60
2017,05,27,14,37,22.60
2017,05,27,14,38,22.70
2017,05,27,14,39,22.80
2017,05,27,14,40,22.90
2017,05,27,14,41,22.90
2017,05,27,14,42,22.90
2017,05,27,14,43,22.90
2017,05,27,14,44,22.90
2017,05,27,14,45,22.90
2017,05,27,14,46,22.90
2017,05,27,14,47,23.00
2017,05,27,14,48,23.00
2017,05,27,14,49,23.00
2017,05,27,14,50,23.00
2017,05,27,14,51,23.10
2017,05,27,14,52,23.20
2017,05,27,14,53,23.20
2017,05,27,14,54,23.20
2017,05,27,14,55,23.20
2017,05,27,14,56,23.20
2017,05,27,14,57,23.30
2017,05,27,14,58,23.30
2017,05,27,14,59,23.30
2017,05,27,15,00,23.30
2017,05,27,15,01,23.30
2017,05,27,15,02,23.20
2017,05,27,15,03,23.20
2017,05,27,15,04,23.20
2017,05,27,15,05,23.20
2017,05,27,15,06,23.20
2017,05,27,15,07,23.20
2017,05,27,15,08,23.30
2017,05,27,15,09,23.30
2017,05,27,15,10,23.30
2017,05,27,15,11,23.30
2017,05,27,15,12,23.30
2017,05,27,15,13,23.40
2017,05,27,15,14,23.40
2017,05,27,15,15,23.40
2017,05,27,15,16,23.30
2017,05,27,15,17,23.40
2017,05,27,15,18,23.40
2017,05,27,15,19,23.50
2017,05,27,15,20,23.50
2017,05,27,15,21,23.60
2017,05,27,15,22,23.60
2017,05,27,15,23,23.70
2017,05,27,15,24,23.70
2017,05,27,15,25,23.60
2017,05,27,15,26,23.60
2017,05,27,15,27,23.60
2017,05,27,15,28,23.60
2017,05,27,15,29,23.60
2017,05,27,15,30,23.60
2017,05,27,15,31,23.70
2017,05,27,15,32,23.70
2017,05,27,15,33,23.70
2017,05,27,15,34,23.60
2017,05,27,15,35,23.60
2017,05,27,15,36,23.60
2017,05,27,15,37,23.50
2017,05,27,15,38,23.50
2017,05,27,15,39,23.40
2017,05,27,15,40,23.40
2017,05,27,15,41,23.40
2017,05,27,15,42,23.40
2017,05,27,15,43,23.40
2017,05,27,15,44,23.40
2017,05,27,15,45,23.40
2017,05,27,15,46,23.40
2017,05,27,15,47,23.40
2017,05,27,15,48,23.40
2017,05,27,15,49,23.40
2017,05,27,15,50,23.50
2017,05,27,15,51,23.50
2017,05,27,15,52,23.50
2017,05,27,15,53,23.40
2017,05,27,15,54,23.40
2017,05,27,15,55,23.40
2017,05,27,15,56,23.50
2017,05,27,15,57,23.50
2017,05,27,15,58,23.50
2017,05,27,15,59,23.60
2017,05,27,16,00,23.60
2017,05,27,16,01,23.60
2017,05,27,16,02,23.60
2017,05,27,16,03,23.50
2017,05,27,16,04,23.50
2017,05,27,16,05,23.50
2017,05,27,16,06,23.50
2017,05,27,16,07,23.50
2017,05,27,16,08,23.60
2017,05,27,16,09,23.60
2017,05,27,16,10,23.60
2017,05,27,16,11,23.40
2017,05,27,16,12,23.40
2017,05,27,16,13,23.40
2017,05,27,16,14,23.40
2017,05,27,16,15,23.40
2017,05,27,16,16,23.40
2017,05,27,16,17,23.40
2017,05,27,16,18,23.40
2017,05,27,16,19,23.40
2017,05,27,16,20,23.40
2017,05,27,16,21,23.40
2017,05,27,16,22,23.50
2017,05,27,16,23,23.50
2017,05,27,16,24,23.50
2017,05,27,16,25,23.50
2017,05,27,16,26,23.40
2017,05,27,16,27,23.30
2017,05,27,16,28,23.30
2017,05,27,16,29,23.30
2017,05,27,16,30,23.40
2017,05,27,16,31,23.40
2017,05,27,16,32,23.40
2017,05,27,16,33,23.40
2017,05,27,16,34,23.40
2017,05,27,16,35,23.30
2017,05,27,16,36,23.30
2017,05,27,16,37,23.40
2017,05,27,16,38,23.40
2017,05,27,16,39,23.40
2017,05,27,16,40,23.40
2017,05,27,16,41,23.40
2017,05,27,16,42,23.40
2017,05,27,16,43,23.40
2017,05,27,16,44,23.30
2017,05,27,16,45,23.30
2017,05,27,16,46,23.30
2017,05,27,16,47,23.30
2017,05,27,16,48,23.30
2017,05,27,16,49,23.30
2017,05,27,16,50,23.30
2017,05,27,16,51,23.40
2017,05,27,16,52,23.40
2017,05,27,16,53,23.50
2017,05,27,16,54,23.60
2017,05,27,16,55,23.60
2017,05,27,16,56,23.70
2017,05,27,16,57,23.70
2017,05,27,16,58,23.80
2017,05,27,16,59,23.80
2017,05,27,17,00,23.80
2017,05,27,17,01,23.80
2017,05,27,17,02,23.80
2017,05,27,17,03,23.80
2017,05,27,17,04,23.80
2017,05,27,17,05,23.80
2017,05,27,17,06,23.70
2017,05,27,17,07,23.80
2017,05,27,17,08,23.80
2017,05,27,17,09,23.80
2017,05,27,17,10,23.80
2017,05,27,17,11,23.70
2017,05,27,17,12,23.70
2017,05,27,17,13,23.70
2017,05,27,17,14,23.70
2017,05,27,17,15,23.70
2017,05,27,17,16,23.70
2017,05,27,17,17,23.70
2017,05,27,17,18,23.70
2017,05,27,17,19,23.70
2017,05,27,17,20,23.70
2017,05,27,17,21,23.70
2017,05,27,17,22,23.70
2017,05,27,17,23,23.70
2017,05,27,17,24,23.70
2017,05,27,17,25,23.70
2017,05,27,17,26,23.70
2017,05,27,17,27,23.80
2017,05,27,17,28,23.80
2017,05,27,17,29,23.80
2017,05,27,17,30,23.80